Burlington, WA

8:18 AM PDT on May 27, 2017 (GMT -0700)
Skagit Regional

Weather History for KBVS - October, 2012

Change the Weather History Date:

Friday, October 26, 2012

  Actual Average Record
Temperature  
Mean Temperature 45 °F -  
Max Temperature 46 °F 56 °F 65 °F (1965)
Min Temperature 44 °F 41 °F 31 °F (1964)
Degree Days  
Heating Degree Days 20    
Moisture  
Dew Point 43 °F    
Average Humidity 90    
Maximum Humidity 100    
Minimum Humidity 76    
Precipitation  
Precipitation 0.17 in - - ()
Sea Level Pressure  
Sea Level Pressure 30.16 in    
Wind  
Wind Speed 9 mph (ENE)    
Max Wind Speed 14 mph    
Max Gust Speed 17 mph    
Visibility 9 miles    
Events      
Averages and records for this station are not official NWS values.
T = Trace of Precipitation, MM = Missing Value Source: NWS Daily Summary

Daily Weather History Graph

Daily Weather History Graph

Search for Another Location

Airport or City:

Trip Planner

Search our weather history database for the weather conditions in past years. The results will help you decide how hot, cold, wet, or windy it might be!

Date:

Astronomy

Oct. 26, 2012 Rise Set
Actual Time 7:47 AM PDT 5:59 PM PDT
Civil Twilight 7:14 AM PDT 6:31 PM PDT
Nautical Twilight 6:38 AM PDT 7:08 PM PDT
Astronomical Twilight 6:01 AM PDT 7:44 PM PDT
Moon 4:26 PM PDT (10/26) 4:37 AM PDT (10/26)
Length of Visible Light 11h 16m
Length of Day
10h 11m
Waxing Gibbous, 91% of the Moon is Illuminated
Oct 26
Waxing Gibbous
Oct 29
Full
Nov 6
Last Quarter
Nov 13
New
Nov 20
First Quarter

Hourly Weather History & Observations

Time (PDT) Temp. Windchill Dew Point Humidity Pressure Visibility Wind Dir Wind Speed Gust Speed Precip Events Conditions
12:15 AM 46.4 °F 42.4 °F 42.8 °F 87% 30.34 in 10.0 mi ENE 8.1 mph - 0.00 in   Clear
12:35 AM 46.4 °F 41.5 °F 42.8 °F 87% 30.34 in 10.0 mi ENE 10.4 mph - 0.00 in   Clear
12:55 AM 46.4 °F 41.5 °F 42.8 °F 87% 30.32 in 10.0 mi East 10.4 mph - 0.00 in   Partly Cloudy
1:15 AM 46.4 °F 41.9 °F 42.8 °F 87% 30.31 in 10.0 mi ENE 9.2 mph - 0.00 in   Clear
1:35 AM 46.4 °F 41.9 °F 42.8 °F 87% 30.30 in 10.0 mi East 9.2 mph - 0.00 in   Clear
1:55 AM 46.4 °F 40.7 °F 42.8 °F 87% 30.29 in 10.0 mi East 12.7 mph - 0.00 in   Clear
2:15 AM 46.4 °F 40.7 °F 42.8 °F 87% 30.28 in 10.0 mi ENE 12.7 mph - 0.00 in   Partly Cloudy
2:35 AM 46.4 °F 40.7 °F 42.8 °F 87% 30.28 in 10.0 mi ENE 12.7 mph - 0.00 in   Partly Cloudy
2:55 AM 46.4 °F 42.9 °F 42.8 °F 87% 30.28 in 10.0 mi ENE 6.9 mph 17.3 mph 0.00 in   Scattered Clouds
3:15 AM 46.4 °F 41.1 °F 42.8 °F 87% 30.28 in 10.0 mi ENE 11.5 mph - 0.00 in   Partly Cloudy
3:35 AM 44.6 °F 39.2 °F 42.8 °F 93% 30.27 in 10.0 mi ENE 10.4 mph - 0.00 in   Partly Cloudy
3:55 AM 46.4 °F 41.1 °F 41.0 °F 81% 30.27 in 10.0 mi ENE 11.5 mph - 0.00 in   Partly Cloudy
4:15 AM 46.4 °F 40.7 °F 41.0 °F 81% 30.26 in 10.0 mi ENE 12.7 mph 16.1 mph 0.00 in   Clear
4:35 AM 46.4 °F 41.5 °F 41.0 °F 81% 30.25 in 10.0 mi NE 10.4 mph - 0.00 in   Scattered Clouds
4:55 AM 46.4 °F 41.5 °F 41.0 °F 81% 30.25 in 10.0 mi ENE 10.4 mph - 0.00 in   Scattered Clouds
5:15 AM 46.4 °F 42.4 °F 41.0 °F 81% 30.24 in 10.0 mi ENE 8.1 mph - 0.00 in   Clear
5:35 AM 46.4 °F 41.5 °F 41.0 °F 81% 30.22 in 10.0 mi ENE 10.4 mph - 0.00 in   Clear
5:55 AM 46.4 °F 41.9 °F 39.2 °F 76% 30.22 in 10.0 mi ENE 9.2 mph - 0.00 in   Partly Cloudy
6:15 AM 46.4 °F 43.5 °F 39.2 °F 76% 30.22 in 10.0 mi ENE 5.8 mph - 0.00 in   Partly Cloudy
6:35 AM 46.4 °F 41.9 °F 39.2 °F 76% 30.21 in 10.0 mi ENE 9.2 mph - 0.00 in   Clear
6:55 AM 46.4 °F 43.5 °F 39.2 °F 76% 30.20 in 10.0 mi East 5.8 mph - 0.00 in   Partly Cloudy
7:15 AM 44.6 °F 42.2 °F 41.0 °F 87% 30.19 in 10.0 mi East 4.6 mph - 0.00 in   Mostly Cloudy
7:35 AM 46.4 °F 41.1 °F 39.2 °F 76% 30.17 in 10.0 mi ENE 11.5 mph - 0.00 in   Overcast
7:55 AM 46.4 °F 43.5 °F 39.2 °F 76% 30.17 in 10.0 mi ENE 5.8 mph - 0.00 in   Overcast
8:15 AM 46.4 °F 42.4 °F 39.2 °F 76% 30.16 in 10.0 mi ENE 8.1 mph - 0.00 in   Mostly Cloudy
8:35 AM 46.4 °F 42.9 °F 41.0 °F 81% 30.16 in 10.0 mi ENE 6.9 mph - 0.00 in   Mostly Cloudy
8:55 AM 46.4 °F 42.9 °F 41.0 °F 81% 30.16 in 10.0 mi East 6.9 mph - 0.00 in   Overcast
9:15 AM 46.4 °F 41.5 °F 41.0 °F 81% 30.16 in 10.0 mi East 10.4 mph - 0.00 in   Mostly Cloudy
9:35 AM 46.4 °F 41.1 °F 39.2 °F 76% 30.16 in 10.0 mi ENE 11.5 mph 17.3 mph 0.00 in   Mostly Cloudy
9:55 AM 46.4 °F 41.9 °F 41.0 °F 81% 30.16 in 10.0 mi East 9.2 mph - 0.00 in   Mostly Cloudy
10:15 AM 46.4 °F 43.5 °F 41.0 °F 81% 30.17 in 10.0 mi ESE 5.8 mph - 0.00 in   Overcast
10:35 AM 46.4 °F 44.3 °F 42.8 °F 87% 30.18 in 9.0 mi NE 4.6 mph - 0.00 in   Mostly Cloudy
10:55 AM 46.4 °F 42.4 °F 42.8 °F 87% 30.18 in 9.0 mi NE 8.1 mph - 0.00 in   Mostly Cloudy
11:15 AM 46.4 °F 40.4 °F 42.8 °F 87% 30.19 in 7.0 mi East 13.8 mph - 0.00 in   Mostly Cloudy
11:35 AM 44.6 °F 38.8 °F 44.6 °F 100% 30.19 in 5.0 mi East 11.5 mph - 0.02 in   Overcast
12:15 PM 44.6 °F 39.2 °F 44.6 °F 100% 30.18 in 4.0 mi East 10.4 mph - 0.03 in   Overcast
12:35 PM 44.6 °F 38.4 °F 44.6 °F 100% 30.16 in 5.0 mi East 12.7 mph - 0.07 in   Overcast
1:15 PM 46.4 °F 40.7 °F 44.6 °F 93% 30.15 in 5.0 mi East 12.7 mph - 0.00 in   Overcast
1:35 PM 44.6 °F 38.8 °F 44.6 °F 100% 30.14 in 10.0 mi East 11.5 mph - 0.00 in   Overcast
1:55 PM 46.4 °F 43.5 °F 44.6 °F 93% 30.13 in 10.0 mi East 5.8 mph - 0.00 in   Mostly Cloudy
2:15 PM 46.4 °F 41.5 °F 44.6 °F 93% 30.13 in 10.0 mi ENE 10.4 mph - 0.00 in   Overcast
2:35 PM 46.4 °F 41.5 °F 44.6 °F 93% 30.13 in 4.0 mi East 10.4 mph - 0.01 in   Overcast
2:55 PM 44.6 °F 39.2 °F 44.6 °F 100% 30.12 in 7.0 mi ENE 10.4 mph - 0.02 in   Overcast
3:15 PM 44.6 °F 40.2 °F 44.6 °F 100% 30.12 in 10.0 mi East 8.1 mph - 0.00 in   Overcast
3:35 PM 46.4 °F 40.4 °F 44.6 °F 93% 30.10 in 8.0 mi East 13.8 mph - 0.00 in   Overcast
3:55 PM 44.6 °F 39.2 °F 44.6 °F 100% 30.11 in 10.0 mi ENE 10.4 mph - 0.00 in   Overcast
4:15 PM 46.4 °F 41.1 °F 44.6 °F 93% 30.09 in 10.0 mi ENE 11.5 mph - 0.00 in   Overcast
4:35 PM 46.4 °F 41.1 °F 44.6 °F 93% 30.09 in 10.0 mi East 11.5 mph - 0.00 in   Overcast
4:55 PM 46.4 °F 42.9 °F 44.6 °F 93% 30.09 in 7.0 mi ENE 6.9 mph - 0.00 in   Overcast
5:15 PM 46.4 °F 41.1 °F 44.6 °F 93% 30.08 in 7.0 mi ENE 11.5 mph - 0.00 in   Overcast
5:35 PM 46.4 °F 40.7 °F 44.6 °F 93% 30.07 in 10.0 mi ENE 12.7 mph - 0.00 in   Overcast
5:55 PM 46.4 °F 41.1 °F 44.6 °F 93% 30.07 in 10.0 mi ENE 11.5 mph - 0.00 in   Overcast
6:15 PM 46.4 °F 42.9 °F 44.6 °F 93% 30.07 in 7.0 mi East 6.9 mph - 0.01 in   Mostly Cloudy
6:35 PM 46.4 °F 43.5 °F 44.6 °F 93% 30.07 in 5.0 mi ENE 5.8 mph - 0.02 in   Overcast
6:55 PM 44.6 °F 40.7 °F 44.6 °F 100% 30.07 in 7.0 mi ENE 6.9 mph - 0.03 in   Overcast
7:35 PM 44.6 °F 38.8 °F 44.6 °F 100% 30.06 in 10.0 mi East 11.5 mph - 0.00 in   Overcast
7:55 PM 44.6 °F 39.7 °F 44.6 °F 100% 30.06 in 9.0 mi ENE 9.2 mph - 0.00 in   Overcast
8:15 PM 46.4 °F 42.9 °F 46.4 °F 100% 30.07 in 10.0 mi ENE 6.9 mph - 0.00 in   Overcast
8:35 PM 46.4 °F - 46.4 °F 100% 30.07 in 5.0 mi Calm Calm - 0.00 in   Overcast
8:55 PM 44.6 °F 42.2 °F 44.6 °F 100% 30.07 in 2.5 mi NE 4.6 mph - 0.00 in   Overcast
9:15 PM 44.6 °F 39.7 °F 44.6 °F 100% 30.06 in 3.0 mi East 9.2 mph - 0.01 in   Overcast
9:35 PM 44.6 °F 39.7 °F 44.6 °F 100% 30.05 in 3.0 mi East 9.2 mph - 0.01 in   Overcast
10:15 PM 46.4 °F 42.9 °F 46.4 °F 100% 30.05 in 10.0 mi East 6.9 mph - 0.00 in   Overcast
10:35 PM 46.4 °F 42.4 °F 46.4 °F 100% 30.04 in 10.0 mi East 8.1 mph - 0.00 in   Overcast
10:55 PM 46.4 °F 43.5 °F 46.4 °F 100% 30.03 in 10.0 mi ESE 5.8 mph - 0.00 in   Overcast
11:15 PM 46.4 °F 43.5 °F 46.4 °F 100% 30.03 in 3.0 mi East 5.8 mph - 0.01 in   Overcast
11:35 PM 46.4 °F 44.3 °F 46.4 °F 100% 30.03 in 8.0 mi ENE 4.6 mph - 0.02 in   Overcast
11:55 PM 46.4 °F 44.3 °F 46.4 °F 100% 30.02 in 9.0 mi ENE 4.6 mph - 0.02 in   Overcast